スペースウォッチ彗星

C/2011 KP36 ( Spacewatch )

English version
Home page
Updated on May 18, 2012

---------------------------------------------------------------------

・ プロフィール

発見日 2011年5月21日
発見光度 20.4等
発見者 T. H. Bressi (Kitt Peak)

・ 写真集

・ 軌道要素

Epoch 2016 May 12.0 TT = JDT 2457520.5
T 2016 May 27.90578 TT                                  MPC
q   4.8856950            (2000.0)            P               Q
z  +0.0261766      Peri.  180.60076     +0.99446842     +0.09816614
 +/-0.0000000      Node   173.40584     -0.09496083     +0.99229345
e   0.8721094      Incl.   18.98722     -0.04488879     +0.07561168
From 92 observations 2011 May 21-2012 May 17, mean residual 0".3.

・ 星図

・ 光度変化

        m1 = 4.0 + 5 logΔ + 10.0 log r

---------------------------------------------------------------------

軌道要素はM.P.E.C. 2012-K12に掲載されたものです。
星図はステラナビゲータ Ver.8 (アストロアーツ) で作成したものです。
光度グラフはComet for Windowsで作成したものです。

---------------------------------------------------------------------

Copyright(C) Seiichi Yoshida (comet@aerith.net). All rights reserved.